{"data":{"norad_id":69599,"intl_designator":"2026-140H","name":"KUIPER-00516","alt_names":[],"object_type":"PAYLOAD","status":"ACTIVE","operator":null,"country":"US","launch_date":"2026-06-17","launch_site_code":"FRGUI","launch_vehicle":null,"mission":null,"orbit_class":"UNKNOWN","rcs_meters":null,"size_class":null,"mass_kg":null,"dimensions":null,"purposes":[],"wikipedia_slug":null,"has_3d_model":false,"image_url":null,"decayed_at":null,"tle_current":{"epoch":"2026-09-20T04:00:03.000096Z","epoch_age_seconds":57894,"freshness":"FRESH","line1":"1 69599U 26140H   26263.16670139 -.00084213  00000+0 -58587-2 0  9997","line2":"2 69599  51.8882 301.1269 0006546 202.4658 169.6809 15.05348761  5073","mean_motion":15.05348761,"eccentricity":0.0006546,"inclination_deg":51.8882,"raan_deg":301.1269,"arg_perigee_deg":202.4658,"mean_anomaly_deg":169.6809,"bstar":-0.0058587,"rev_number":507,"period_min":95.65889561987,"perigee_km":545.89988544646,"apogee_km":554.97077233945,"semimajor_km":6928.572328893,"source":"CELESTRAK","updated_at":"2026-09-20T09:00:25.000523Z"}}}